Theta_e
284 283 282 282 281 282 280 280 279 279 279 279 279 279 279 279 279 279 278 278 278 278 278 278 278 278 279 278 277 277 277 277 277 277 277 277 276 276 277 276 276 276
283 283 283 282 282 282 280 279 279 279 279 279 279 279 279 279 279 279 278 278 278 277 277 277 277 277 277 277 276 276 276 276 276 278 276 276 276 276 276 275 275 275
283 282 282 281 281 280 279 279 279 279 279 279 279 279 280 279 278 277 278 277 277 276 276 276 276 276 276 276 276 276 275 275 275 275 276 275 275 275 275 275 275 275
282 282 282 281 280 279 279 279 279 279 279 279 279 279 279 279 278 277 277 278 276 276 276 276 276 276 276 275 275 275 275 275 275 275 275 275 275 275 275 275 275 274
282 281 280 280 279 279 279 279 279 279 279 279 279 279 279 278 277 277 276 276 276 275 275 275 275 275 275 275 275 275 275 275 274 274 274 274 274 275 275 275 274 273
281 281 280 280 280 279 279 279 279 279 279 278 279 279 277 277 277 276 276 275 275 275 275 275 275 275 274 274 274 274 274 274 274 274 274 274 273 274 275 274 273 272
280 280 279 279 279 279 279 279 279 280 279 278 278 277 277 277 277 277 276 276 275 276 276 276 275 274 274 274 274 273 274 273 273 273 273 273 273 273 273 273 272 272
280 280 280 279 279 279 278 279 280 280 279 278 278 278 278 277 277 277 276 277 277 276 276 275 275 274 274 273 273 273 273 273 272 272 272 272 272 272 272 273 272 272
280 279 279 279 279 278 278 279 279 279 279 279 279 278 278 278 278 277 277 277 276 276 275 275 275 274 274 273 272 272 272 272 272 272 272 272 272 272 272 272 272 271
279 279 279 279 278 278 279 279 279 279 279 279 278 278 277 278 278 277 277 276 275 275 275 274 274 273 273 273 272 271 271 271 271 272 272 272 272 271 271 271 271 271
279 279 279 278 278 278 278 279 279 278 278 278 278 277 277 277 277 277 276 276 275 275 274 273 273 272 272 272 271 271 271 271 272 272 272 272 272 272 274 271 271 271
279 279 279 279 278 278 279 279 278 278 278 278 277 277 277 276 276 276 275 275 275 274 273 273 272 272 271 271 271 271 271 271 272 272 272 271 271 271 271 271 271 271
279 279 279 279 278 278 279 279 278 278 278 277 277 277 276 276 276 275 275 274 274 273 273 272 271 270 270 270 271 271 271 271 271 271 271 270 270 270 271 271 271 271
279 279 279 279 278 278 278 278 278 277 277 277 276 276 275 275 275 274 274 273 273 273 273 272 271 271 271 271 271 270 270 270 271 270 270 270 270 270 270 270 271 271
279 278 278 278 277 277 277 277 277 277 276 276 276 275 275 275 275 274 273 273 272 272 272 272 271 271 271 271 270 270 271 271 271 270 269 269 269 269 269 269 269 269
278 278 278 277 276 276 276 276 276 276 275 275 275 275 274 274 274 274 273 272 272 272 271 271 270 270 273 276 275 271 271 272 272 270 269 269 268 268 268 268 268 268
278 278 277 277 276 276 276 276 275 275 274 275 274 274 273 273 273 273 273 272 272 271 271 271 270 271 276 277 277 277 273 272 271 271 271 270 269 268 268 268 268 268
278 277 276 276 275 275 274 274 274 274 274 274 273 273 273 273 273 272 272 271 271 271 271 270 270 274 277 279 279 279 276 272 272 272 271 271 270 269 268 268 267 267
278 276 275 274 274 274 274 273 273 273 273 273 272 273 272 272 272 272 271 271 271 271 270 270 270 275 278 279 280 279 278 275 272 272 271 271 271 270 269 268 267 267
277 275 274 274 273 273 273 272 272 273 273 273 272 272 272 272 272 271 272 271 271 271 270 270 269 274 278 279 280 279 279 277 273 272 271 271 271 270 268 267 266 266
276 275 274 273 273 273 272 272 272 272 272 272 272 272 272 271 271 271 270 271 270 270 269 269 268 274 278 279 280 279 278 278 273 272 272 271 270 268 267 267 267 267
275 275 274 273 273 272 271 272 271 271 271 272 272 272 272 272 271 271 271 270 270 269 268 268 267 275 277 278 279 279 279 276 273 272 270 269 268 267 267 268 268 267
276 275 274 273 272 272 271 271 271 270 271 271 270 272 272 271 271 271 271 270 269 268 268 268 267 272 277 278 279 279 278 273 271 269 267 266 267 267 267 268 268 268
276 275 274 273 272 272 271 272 272 272 272 272 272 271 271 271 270 270 269 269 269 268 268 267 266 269 275 277 278 279 277 271 270 268 267 267 266 268 268 268 268 271
276 275 275 274 273 273 272 272 272 273 273 272 272 272 271 270 269 269 268 268 268 268 269 267 265 267 274 277 278 279 277 271 269 267 267 267 266 266 268 268 268 270
275 275 275 274 273 273 273 273 273 272 272 271 271 271 270 269 268 268 268 267 266 266 266 266 264 263 266 276 277 278 278 271 269 267 266 266 266 266 265 265 267 267
Wind_Speed
6 6 7 7 6 6 7 7 5 7 6 5 7 6 7 6 5 6 5 5 5 6 5 5 5 5 6 5 4 5 5 5 5 5 6 6 6 6 7 6 5 5
6 6 6 6 6 5 5 5 6 7 6 5 5 5 4 5 4 5 6 6 5 5 5 5 5 5 5 5 5 6 6 6 6 3 7 7 5 6 6 5 5 4
7 6 7 8 8 7 7 5 5 6 6 5 5 4 5 3 4 4 5 5 6 6 5 5 5 5 5 5 5 6 6 6 6 4 6 5 5 6 4 4 5 4
6 7 7 6 7 8 7 7 6 6 6 7 6 5 5 4 4 5 4 5 6 5 4 4 5 5 5 6 6 6 6 5 4 5 5 5 4 4 4 4 4 4
7 6 5 6 5 6 6 7 7 6 6 7 6 6 7 6 5 4 5 5 5 5 4 5 4 5 5 6 5 6 5 6 4 5 5 5 3 4 3 5 4 3
5 5 6 7 7 8 8 8 7 7 7 6 7 6 6 5 5 5 5 5 4 4 5 5 5 4 5 5 6 5 5 6 4 5 5 5 4 3 3 4 3 3
8 7 7 7 7 6 7 7 7 6 7 6 5 5 5 6 6 6 5 5 5 5 5 5 5 5 4 5 5 4 4 4 4 5 5 3 4 3 3 3 3 3
8 6 8 7 8 7 7 7 7 7 6 6 6 6 6 6 6 5 5 6 6 6 5 5 4 5 4 4 4 4 4 3 5 5 4 4 3 3 3 2 3 3
8 8 8 9 9 8 8 8 7 7 6 8 7 6 5 6 6 6 6 5 5 5 5 4 4 5 4 4 4 4 5 4 4 3 4 4 4 3 3 2 3 2
8 8 9 9 9 8 9 8 7 7 6 6 6 6 6 5 6 6 6 6 5 4 3 4 5 4 4 4 4 4 5 4 3 3 3 3 4 3 3 2 1 0
9 9 10 10 9 8 9 8 7 7 6 7 7 6 6 6 6 6 6 6 4 5 5 5 5 5 5 4 3 3 4 4 4 3 4 4 3 3 3 2 0 1
10 10 11 11 10 9 9 9 8 8 7 6 7 8 7 6 7 6 6 7 7 6 6 6 6 5 4 4 3 3 3 3 4 4 4 4 3 2 1 0 1 1
11 11 11 10 9 8 8 8 8 8 8 8 7 7 8 8 7 7 6 7 7 6 5 5 5 4 4 4 3 3 3 4 4 4 4 3 2 1 0 0 0 1
11 10 9 9 8 7 8 7 7 7 6 5 6 7 7 7 8 8 7 8 7 6 5 5 5 5 5 4 4 3 4 4 4 4 3 2 1 0 1 0 0 1
9 8 7 7 7 7 7 7 7 7 6 6 6 5 5 6 6 8 8 6 6 6 6 5 6 6 5 5 4 4 3 4 4 3 3 2 1 2 1 1 1 1
9 8 8 8 8 9 8 8 7 7 7 7 7 6 5 6 6 7 5 7 6 6 6 6 6 4 6 10 8 5 4 3 3 3 3 3 3 3 2 2 2 1
9 9 9 10 9 8 8 9 8 7 7 7 7 6 7 7 7 6 8 8 9 6 6 6 6 5 12 11 11 11 6 6 6 5 4 3 3 4 4 3 1 1
10 9 9 9 9 10 9 7 7 7 7 7 7 7 7 7 7 8 8 7 7 5 6 6 6 8 12 12 12 12 10 6 5 5 5 5 4 4 4 3 2 0
10 10 10 9 9 9 8 8 8 8 8 8 9 7 6 8 9 8 9 8 7 8 8 6 6 10 12 13 12 13 13 9 5 6 5 5 5 5 3 2 2 1
10 9 9 9 8 8 8 8 9 10 9 7 7 6 8 7 6 8 8 9 8 8 7 6 6 9 13 13 13 13 13 10 6 6 6 6 6 5 3 3 3 3
11 10 9 9 9 9 9 9 10 8 9 9 9 10 10 10 10 10 8 7 8 6 6 6 5 10 12 13 14 14 13 10 6 6 6 6 5 3 3 3 3 4
11 11 11 10 10 9 9 11 10 11 11 9 8 7 6 5 5 5 8 8 8 7 7 7 5 12 13 13 14 14 14 7 6 7 6 4 3 3 3 4 4 5
13 13 12 11 10 11 11 11 11 10 9 7 8 9 9 9 9 9 7 8 9 8 8 7 6 10 14 14 14 16 12 5 5 3 4 3 4 3 4 5 5 5
13 12 12 12 11 13 13 11 9 7 9 8 11 10 11 11 8 7 7 8 9 10 9 8 7 9 15 14 15 17 12 6 5 5 4 4 3 4 5 6 7 13
11 11 11 12 13 13 12 12 12 12 9 8 9 8 8 6 6 7 7 7 8 9 8 9 7 9 14 15 17 17 12 6 6 5 5 5 4 5 6 6 6 8
9 11 11 12 13 11 10 11 8 7 8 9 8 7 7 6 6 6 8 8 7 8 9 9 8 7 8 16 17 17 17 7 6 6 7 6 6 6 6 5 6 7
Wind_Direction
144 141 144 141 139 138 139 136 133 130 130 133 135 147 141 141 135 122 121 116 111 107 104 96 96 99 99 94 96 93 84 87 78 76 77 78 70 74 69 62 59 73
151 142 133 125 120 116 118 126 136 136 136 134 133 129 127 127 135 131 127 117 109 104 98 95 95 103 105 100 97 93 84 76 73 53 78 73 75 74 73 67 65 56
147 142 142 146 147 145 138 130 128 131 132 134 124 124 128 127 127 116 117 121 113 104 98 100 97 94 98 96 92 89 89 85 81 75 78 76 74 78 74 75 66 65
152 150 148 141 140 141 137 133 132 131 132 135 145 143 134 137 130 126 121 114 109 107 108 101 105 104 102 99 95 87 89 85 95 92 86 71 66 86 76 82 78 58
152 143 137 132 128 129 133 138 145 150 151 149 142 143 139 141 138 130 117 105 107 114 110 108 101 101 102 97 97 99 90 93 85 90 92 86 66 80 75 84 79 69
137 140 139 142 144 145 150 153 157 154 151 155 159 143 141 139 135 130 123 121 122 124 115 107 101 93 100 104 97 98 111 105 103 102 101 101 87 74 89 91 95 88
150 145 144 140 143 150 149 155 157 157 160 155 137 146 144 142 138 136 136 136 137 133 124 120 116 110 100 101 102 113 111 114 111 108 109 110 104 87 91 99 94 82
154 148 148 149 151 156 156 162 165 164 157 150 153 151 152 147 142 141 145 147 139 127 116 112 110 109 107 112 131 133 124 116 114 115 115 116 109 103 88 81 75 64
153 155 155 158 158 163 165 167 167 160 159 157 154 153 152 146 149 150 148 140 128 124 119 121 121 121 130 137 148 141 128 117 118 124 126 119 105 98 85 75 60 62
162 160 161 165 166 170 171 170 165 162 159 154 151 150 152 151 152 153 145 142 131 124 118 122 117 141 146 149 146 135 127 130 131 124 115 104 97 85 76 79 102 76
168 169 169 172 173 171 173 167 165 159 159 158 153 159 160 155 157 154 152 149 134 145 131 147 157 155 151 141 130 128 134 135 127 113 97 91 89 82 83 111 150 178
175 176 179 177 174 173 172 170 165 164 164 164 167 165 163 168 163 167 162 153 154 154 137 138 145 155 145 139 137 134 132 123 111 98 90 86 85 99 114 124 173 258
182 184 179 178 176 172 168 169 171 171 171 173 172 168 168 173 174 167 166 141 131 130 148 159 155 143 137 138 138 137 127 114 100 96 92 88 98 120 96 146 181 237
187 182 179 177 171 166 169 169 168 170 172 165 164 174 179 182 179 152 134 127 143 153 158 157 149 136 132 141 143 133 117 107 110 110 114 107 129 154 178 180 227 246
180 180 175 169 166 165 166 169 169 169 167 167 172 176 175 179 171 149 144 143 148 155 155 162 145 150 156 154 140 126 117 120 121 126 131 153 175 200 232 223 253 254
179 177 176 168 169 173 173 170 169 169 170 172 175 172 166 173 175 172 153 147 147 155 157 152 157 164 170 162 151 139 136 128 125 141 163 174 181 195 220 222 229 229
178 184 175 179 178 172 174 172 172 169 172 174 170 168 172 176 178 175 173 175 169 160 163 163 155 173 178 171 166 159 152 160 166 177 181 192 191 190 205 212 217 214
186 181 181 182 173 179 176 173 168 170 174 174 170 173 178 174 188 187 178 175 173 169 172 170 161 187 186 182 177 177 167 164 172 177 185 194 201 201 205 184 182 184
181 184 185 180 184 178 173 169 170 173 176 176 183 179 165 185 193 185 186 179 177 177 173 177 175 194 194 191 193 191 183 172 175 180 187 195 200 202 195 177 158 197
181 181 185 187 181 177 173 175 176 185 183 179 170 169 183 189 193 195 189 184 183 182 178 176 178 204 200 199 197 195 194 183 164 186 197 201 201 197 186 187 203 206
181 179 185 185 185 182 180 183 185 182 179 182 180 185 186 191 193 194 194 184 180 177 171 181 194 205 206 206 202 199 198 192 168 193 199 205 195 180 192 205 216 214
180 185 189 188 185 184 185 189 189 187 185 183 181 188 194 187 207 206 193 186 180 172 168 191 204 207 209 210 206 204 201 192 175 194 197 187 194 200 208 216 215 219
188 189 190 188 185 185 192 194 189 190 190 180 182 191 183 195 200 197 196 186 179 176 177 191 197 213 212 211 210 207 201 166 171 169 185 188 199 200 212 221 221 221
192 190 189 188 185 193 196 198 195 195 192 183 187 186 192 202 192 192 197 194 184 182 183 185 199 212 213 213 212 211 197 170 170 179 201 196 203 214 215 223 226 231
190 190 191 189 193 199 195 195 196 195 188 183 196 195 200 185 187 196 199 202 199 182 172 185 200 209 213 214 213 212 202 162 173 173 200 208 197 219 223 220 236 240
189 191 193 192 198 197 195 201 191 180 186 187 193 192 190 188 195 205 205 206 196 179 186 192 195 205 215 215 215 211 206 172 173 179 205 204 203 207 225 241 233 242